Othello, WA

10:23 PM PDT on August 25, 2016 (GMT -0700)
Hanford

Weather History for KHMS - October, 2012

Change the Weather History Date:

Thursday, October 18, 2012

  Actual Average Record
Temperature  
Mean Temperature 48 °F -  
Max Temperature 63 °F 62 °F 72 °F (2003)
Min Temperature 35 °F 38 °F 33 °F (2010)
Degree Days  
Heating Degree Days 16    
Moisture  
Dew Point 36 °F    
Average Humidity 64    
Maximum Humidity 93    
Minimum Humidity 36    
Precipitation  
Precipitation 0.00 in - - ()
Sea Level Pressure  
Sea Level Pressure 30.12 in    
Wind  
Wind Speed 5 mph (East)    
Max Wind Speed 9 mph    
Max Gust Speed -    
Visibility 15 miles    
Events      
Averages and records for this station are not official NWS values.
T = Trace of Precipitation, MM = Missing Value Source: NWS Daily Summary

Daily Weather History Graph

Daily Weather History Graph

Search for Another Location

Airport or City:

Trip Planner

Search our weather history database for the weather conditions in past years. The results will help you decide how hot, cold, wet, or windy it might be!

Date:

Astronomy

Oct. 18, 2012 Rise Set
Actual Time 7:20 AM PDT 6:05 PM PDT
Civil Twilight 6:50 AM PDT 6:35 PM PDT
Nautical Twilight 6:15 AM PDT 7:10 PM PDT
Astronomical Twilight 5:40 AM PDT 7:45 PM PDT
Moon 11:21 AM PDT (10/18) 8:31 PM PDT (10/18)
Length of Visible Light 11h 45m
Length of Day
10h 44m
Waxing Crescent, 15% of the Moon is Illuminated
Oct 18
Waxing Crescent
Oct 21
First Quarter
Oct 29
Full
Nov 6
Last Quarter
Nov 13
New

Hourly Weather History & Observations

Time (PDT) Temp. Windchill Dew Point Humidity Pressure Visibility Wind Dir Wind Speed Gust Speed Precip Events Conditions
12:50 AM 41.4 °F 38.4 °F 35.1 °F 78% 30.25 in 15.0 mi East 4.6 mph - N/A   Partly Cloudy
1:50 AM 40.6 °F 36.0 °F 35.6 °F 82% 30.25 in 15.0 mi East 6.9 mph - N/A   Partly Cloudy
3:50 AM 38.1 °F 35.7 °F 34.3 °F 86% 30.25 in 15.0 mi East 3.5 mph - N/A   Clear
4:50 AM 38.1 °F 35.7 °F 35.1 °F 89% 30.24 in 15.0 mi South 3.5 mph - N/A   Clear
5:50 AM 37.0 °F 34.5 °F 34.3 °F 90% 30.25 in 15.0 mi ESE 3.5 mph - N/A   Clear
6:50 AM 35.2 °F 32.4 °F 32.7 °F 91% 30.25 in 15.0 mi ESE 3.5 mph - N/A   Scattered Clouds
7:50 AM 37.9 °F 32.7 °F 36.1 °F 93% 30.25 in 15.0 mi East 6.9 mph - N/A   Mostly Cloudy
8:50 AM 41.9 °F 39.0 °F 37.4 °F 84% 30.24 in 15.0 mi NE 4.6 mph - N/A   Mostly Cloudy
9:50 AM 46.8 °F - 37.8 °F 71% 30.23 in 15.0 mi NNE 2.3 mph - N/A   Partly Cloudy
10:50 AM 50.4 °F - 37.6 °F 62% 30.22 in 15.0 mi SW 5.8 mph - N/A   Scattered Clouds
11:50 AM 55.0 °F - 37.8 °F 52% 30.21 in 15.0 mi NE 4.6 mph - N/A   Mostly Cloudy
12:50 PM 58.1 °F - 36.1 °F 44% 30.18 in 15.0 mi NE 4.6 mph - N/A   Mostly Cloudy
1:50 PM 60.4 °F - 33.8 °F 37% 30.14 in 15.0 mi NE 5.8 mph - N/A   Mostly Cloudy
2:50 PM 61.5 °F - 34.5 °F 36% 30.10 in 15.0 mi ESE 4.6 mph - N/A   Mostly Cloudy
3:50 PM 62.2 °F - 34.5 °F 36% 30.06 in 15.0 mi SSE 2.3 mph - N/A   Mostly Cloudy
4:50 PM 61.5 °F - 34.9 °F 37% 29.99 in 15.0 mi ESE 3.5 mph - N/A   Mostly Cloudy
5:50 PM 57.2 °F - 35.8 °F 45% 29.95 in 15.0 mi WSW 3.5 mph - N/A   Overcast
6:50 PM 53.2 °F - 35.4 °F 51% 29.92 in 15.0 mi WNW 8.1 mph - N/A   Overcast
9:50 PM 50.2 °F - 36.9 °F 60% 29.85 in 15.0 mi West 9.2 mph - N/A   Mostly Cloudy
10:50 PM 49.8 °F - 36.0 °F 59% 29.88 in 15.0 mi West 9.2 mph - N/A   Overcast
11:50 PM 52.3 °F - 38.8 °F 60% 29.87 in 15.0 mi ESE 3.5 mph - N/A   Overcast